Weather History for Caribou, ME

Change the Weather History Date:

Saturday, March 23, 2013

  Actual Average Record
Temperature  
Mean Temperature 31 °F 27 °F  
Max Temperature 35 °F 36 °F 60 °F (1979)
Min Temperature 26 °F 18 °F -6 °F (2008)
Degree Days  
Heating Degree Days 34 38  
Month to date heating degree days 845 969  
Since 1 July heating degree days 6993 7690  
Cooling Degree Days 0 0  
Month to date cooling degree days 0 0  
Year to date cooling degree days 0 0  
Moisture  
Dew Point 25 °F    
Average Humidity 79    
Maximum Humidity 89    
Minimum Humidity 69    
Precipitation  
Precipitation 0.06 in 0.08 in 0.70 in (1940)
Month to date precipitation 1.60 1.86  
Year to date precipitation 6.97 6.78  
Snow  
Snow 0.60 in 0.50 in 17.40 in (1940)
Month to date snowfall 14.2 14.7  
Since 1 July snowfall 101.6 97.2  
Snow Depth 11.00 in    
Sea Level Pressure  
Sea Level Pressure 29.29 in    
Wind  
Wind Speed 12 mph (West)    
Max Wind Speed 23 mph    
Max Gust Speed 29 mph    
Visibility 4 miles    
Events Snow    
T = Trace of Precipitation, MM = Missing Value Source: NWS Daily Summary

Daily Weather History Graph

Daily Weather History Graph

Search for Another Location

Airport:

Trip Planner

Search our weather history database for the weather conditions in past years. The results will help you decide how hot, cold, wet, or windy it might be!

Date:

Astronomy

Mar. 23, 2013 Rise Set
Actual Time 6:28 AM EDT 6:49 PM EDT
Civil Twilight 5:58 AM EDT 7:19 PM EDT
Nautical Twilight 5:22 AM EDT 7:55 PM EDT
Astronomical Twilight 4:45 AM EDT 8:32 PM EDT
Moon 3:00 PM EDT (3/23) 4:15 AM EDT (3/23)
Length of Visible Light 13h 21m
Length of Day
12h 20m
Waxing Gibbous, 85% of the Moon is Illuminated
Mar 23
Waxing Gibbous
Mar 27
Full
Apr 3
Last Quarter
Apr 10
New
Apr 18
First Quarter

Hourly Weather History & Observations

Time (EDT) Temp. Windchill Dew Point Humidity Pressure Visibility Wind Dir Wind Speed Gust Speed Precip Events Conditions
12:54 AM 27.0 °F 16.1 °F 19.9 °F 75% 29.34 in 10.0 mi WSW 12.7 mph 20.7 mph 0.00 in   Overcast
1:54 AM 27.0 °F 15.2 °F 19.9 °F 75% 29.31 in 10.0 mi West 15.0 mph 25.3 mph N/A   Overcast
2:54 AM 26.1 °F 14.5 °F 19.9 °F 78% 29.30 in 7.0 mi West 13.8 mph 21.9 mph N/A   Overcast
3:13 AM 26.6 °F 15.2 °F 19.4 °F 74% 29.26 in 4.0 mi West 13.8 mph 20.7 mph 0.00 in Snow Light Snow
3:50 AM 26.6 °F 15.2 °F 19.4 °F 74% 29.24 in 5.0 mi West 13.8 mph 20.7 mph 0.00 in Snow Light Snow
3:54 AM 26.1 °F 15.6 °F 19.9 °F 78% 29.28 in 6.0 mi West 11.5 mph 20.7 mph 0.00 in Snow Light Snow
4:54 AM 26.1 °F 15.0 °F 19.9 °F 78% 29.26 in 3.0 mi West 12.7 mph 21.9 mph 0.00 in   Haze
5:05 AM 26.6 °F 15.7 °F 21.2 °F 80% 29.23 in 3.0 mi West 12.7 mph 19.6 mph 0.00 in   Overcast
5:17 AM 26.6 °F 16.2 °F 21.2 °F 80% 29.22 in 2.5 mi WSW 11.5 mph - 0.00 in Snow Light Snow
5:30 AM 26.6 °F 16.2 °F 21.2 °F 80% 29.22 in 3.0 mi West 11.5 mph 18.4 mph 0.00 in Snow Light Snow
5:41 AM 26.6 °F 15.7 °F 21.2 °F 80% 29.22 in 2.0 mi West 12.7 mph 21.9 mph 0.00 in Snow Light Snow
5:54 AM 26.1 °F 16.2 °F 21.0 °F 81% 29.26 in 2.5 mi West 10.4 mph 19.6 mph 0.00 in Snow Light Snow
7:33 AM 26.6 °F 16.8 °F 21.2 °F 80% 29.23 in 0.8 mi West 10.4 mph - 0.00 in Snow Light Snow
7:49 AM 26.6 °F 16.2 °F 21.2 °F 80% 29.23 in 1.2 mi West 11.5 mph - 0.00 in Snow Light Snow
7:54 AM 26.1 °F 14.5 °F 21.0 °F 81% 29.26 in 1.5 mi West 13.8 mph 20.7 mph 0.00 in Snow Light Snow
8:05 AM 26.6 °F 16.8 °F 21.2 °F 80% 29.23 in 1.0 mi West 10.4 mph - 0.00 in Snow Light Snow
8:14 AM 26.6 °F 16.2 °F 21.2 °F 80% 29.23 in 0.8 mi West 11.5 mph - 0.00 in Snow Light Snow
8:44 AM 26.6 °F 16.2 °F 23.0 °F 86% 29.23 in 0.8 mi West 11.5 mph 20.7 mph 0.01 in Snow Light Snow
9:11 AM 26.6 °F 16.2 °F 23.0 °F 86% 29.22 in 1.0 mi West 11.5 mph - 0.01 in Snow Light Snow
9:46 AM 28.4 °F 19.1 °F 23.0 °F 80% 29.22 in 1.8 mi West 10.4 mph 19.6 mph 0.01 in Snow Light Snow
9:54 AM 28.9 °F 18.6 °F 23.0 °F 78% 29.26 in 3.0 mi West 12.7 mph - 0.01 in Snow Light Snow
10:04 AM 28.4 °F 18.5 °F 23.0 °F 80% 29.23 in 1.8 mi West 11.5 mph 19.6 mph 0.00 in Snow Light Snow
10:13 AM 28.4 °F 17.5 °F 24.8 °F 86% 29.23 in 1.2 mi West 13.8 mph - 0.00 in Snow Light Snow
10:19 AM 30.2 °F 21.3 °F 24.8 °F 80% 29.23 in 2.0 mi West 10.4 mph 18.4 mph 0.00 in Snow Light Snow
10:45 AM 30.2 °F 21.3 °F 23.0 °F 75% 29.23 in 5.0 mi West 10.4 mph 19.6 mph 0.00 in Snow Light Snow
10:54 AM 30.9 °F 22.8 °F 23.0 °F 72% 29.26 in 4.0 mi West 9.2 mph 19.6 mph 0.00 in Snow Light Snow
11:00 AM 30.2 °F 20.8 °F 23.0 °F 75% 29.23 in 1.8 mi West 11.5 mph 19.6 mph 0.00 in Snow Light Snow
11:11 AM 30.2 °F 21.9 °F 24.8 °F 80% 29.23 in 1.0 mi West 9.2 mph - 0.00 in Snow Light Snow
11:32 AM 30.2 °F 20.8 °F 24.8 °F 80% 29.23 in 1.8 mi West 11.5 mph - 0.01 in Snow Light Snow
11:45 AM 30.2 °F 23.4 °F 26.6 °F 86% 29.24 in 1.2 mi West 6.9 mph - 0.01 in Snow Light Snow
11:54 AM 30.9 °F 22.8 °F 26.1 °F 82% 29.27 in 1.8 mi West 9.2 mph - 0.01 in Snow Light Snow
12:12 PM 32.0 °F 25.6 °F 26.6 °F 80% 29.24 in 2.5 mi WSW 6.9 mph - 0.00 in Snow Light Snow
12:39 PM 33.8 °F 27.0 °F 24.8 °F 70% 29.24 in 3.0 mi West 8.1 mph - 0.00 in Snow Light Snow
12:54 PM 33.1 °F 25.5 °F 25.0 °F 72% 29.28 in 5.0 mi West 9.2 mph - 0.00 in Snow Light Snow
1:05 PM 32.0 °F 25.6 °F 26.6 °F 80% 29.25 in 1.8 mi West 6.9 mph - 0.00 in Snow Light Snow
1:19 PM 32.0 °F 24.2 °F 26.6 °F 80% 29.26 in 3.0 mi WSW 9.2 mph - 0.00 in Snow Light Snow
1:54 PM 34.0 °F 24.6 °F 26.1 °F 73% 29.29 in 3.0 mi WNW 13.8 mph 20.7 mph 0.00 in Snow Light Snow
1:56 PM 33.8 °F 25.8 °F 26.6 °F 75% 29.26 in 2.5 mi West 10.4 mph 20.7 mph 0.00 in Snow Light Snow
2:01 PM 33.8 °F 24.8 °F 26.6 °F 75% 29.26 in 1.2 mi WNW 12.7 mph 20.7 mph 0.00 in Snow Light Snow
2:14 PM 33.8 °F 26.4 °F 26.6 °F 75% 29.26 in 2.0 mi West 9.2 mph 18.4 mph 0.01 in Snow Light Snow
2:31 PM 33.8 °F 24.3 °F 26.6 °F 75% 29.26 in 2.0 mi WNW 13.8 mph 23.0 mph 0.01 in Snow Light Snow
2:40 PM 33.8 °F 25.8 °F 26.6 °F 75% 29.27 in 8.0 mi WNW 10.4 mph - 0.01 in Snow Light Snow
2:54 PM 35.1 °F 28.6 °F 27.0 °F 72% 29.30 in 9.0 mi West 8.1 mph - 0.01 in   Overcast
3:10 PM 35.6 °F 28.6 °F 26.6 °F 70% 29.28 in 2.5 mi WNW 9.2 mph - 0.00 in Snow Light Snow
3:20 PM 35.6 °F 29.2 °F 26.6 °F 70% 29.28 in 5.0 mi West 8.1 mph - 0.00 in Snow Light Snow
3:39 PM 35.6 °F 28.6 °F 28.4 °F 75% 29.28 in 2.0 mi West 9.2 mph 17.3 mph 0.00 in Snow Light Snow
3:49 PM 33.8 °F 26.4 °F 28.4 °F 81% 29.28 in 3.0 mi West 9.2 mph - 0.00 in Snow Light Snow
3:54 PM 34.0 °F 29.8 °F 28.9 °F 82% 29.32 in 3.0 mi West 4.6 mph - 0.00 in Snow Light Snow
4:02 PM 33.8 °F 27.0 °F 30.2 °F 87% 29.29 in 2.0 mi West 8.1 mph - 0.00 in Snow Light Snow
4:13 PM 35.6 °F 27.5 °F 28.4 °F 75% 29.29 in 5.0 mi WNW 11.5 mph 18.4 mph 0.00 in Snow Light Snow
4:23 PM 35.6 °F 29.2 °F 28.4 °F 75% 29.29 in 3.0 mi WNW 8.1 mph 18.4 mph 0.00 in Snow Light Snow
4:34 PM 35.6 °F 28.0 °F 28.4 °F 75% 29.29 in 1.8 mi WNW 10.4 mph - 0.00 in Snow Light Snow
4:45 PM 33.8 °F 27.7 °F 30.2 °F 87% 29.30 in 3.0 mi West 6.9 mph 16.1 mph 0.00 in Snow Light Snow
4:54 PM 34.0 °F 27.2 °F 30.0 °F 85% 29.33 in 2.0 mi WNW 8.1 mph - 0.00 in Snow Light Snow
4:56 PM 33.8 °F 27.0 °F 30.2 °F 87% 29.30 in 1.2 mi WNW 8.1 mph - 0.00 in Snow Light Snow
5:05 PM 33.8 °F 27.0 °F 30.2 °F 87% 29.30 in 0.8 mi West 8.1 mph - 0.01 in Snow Light Snow
5:12 PM 33.8 °F 27.7 °F 30.2 °F 87% 29.30 in 1.5 mi West 6.9 mph - 0.01 in Snow Light Snow
5:25 PM 33.8 °F 28.6 °F 30.2 °F 87% 29.31 in 2.0 mi West 5.8 mph - 0.01 in Snow Light Snow
5:33 PM 33.8 °F 28.6 °F 30.2 °F 87% 29.31 in 5.0 mi West 5.8 mph - 0.01 in Snow Light Snow
5:54 PM 34.0 °F 28.0 °F 30.0 °F 85% 29.35 in 10.0 mi WNW 6.9 mph - 0.01 in   Mostly Cloudy
6:38 PM 33.8 °F 24.3 °F 28.4 °F 81% 29.34 in 6.0 mi NW 13.8 mph - 0.00 in Snow Light Snow
6:54 PM 33.1 °F 24.4 °F 28.0 °F 82% 29.38 in 10.0 mi NW 11.5 mph 19.6 mph 0.00 in   Mostly Cloudy
7:54 PM 32.0 °F 21.6 °F 27.0 °F 82% 29.41 in 10.0 mi NNW 15.0 mph 21.9 mph N/A   Mostly Cloudy
8:01 PM 32.0 °F 21.2 °F 26.6 °F 80% 29.38 in 10.0 mi NNW 16.1 mph - N/A   Mostly Cloudy
8:54 PM 32.0 °F 21.6 °F 26.1 °F 79% 29.45 in 10.0 mi NNW 15.0 mph 21.9 mph N/A   Overcast
9:54 PM 30.9 °F 19.8 °F 25.0 °F 79% 29.47 in 10.0 mi NNW 16.1 mph - N/A   Overcast
10:54 PM 30.9 °F 20.2 °F 24.1 °F 76% 29.48 in 10.0 mi NNW 15.0 mph - N/A   Overcast
11:54 PM 30.0 °F 17.5 °F 23.0 °F 75% 29.51 in 10.0 mi NNW 19.6 mph 24.2 mph N/A   Overcast